,,Stat6,,Stat2,,Stat8,,Stat9,,Stat10,,Wind1,,Wind1,
time,status,PA1M_AVG,status,PR1M_SUM,status,RH1M_AVG,status,SR1M_AVG,status,TA1M_AVG,status,W1dAve1m,status,W1sAve1m,
2005-02-03, 00:00:00,VALID,919.352,VALID,0,VALID,100,VALID,0,VALID,18.7417,VALID,86,VALID,0.500977,
2005-02-03, 00:01:00,VALID,919.335,VALID,0,VALID,100,VALID,0,VALID,18.7316,VALID,82,VALID,0.32848,
2005-02-03, 00:02:00,VALID,919.334,VALID,0,VALID,100,VALID,0,VALID,18.7385,VALID,82,VALID,0.65293,
2005-02-03, 00:03:00,VALID,919.337,VALID,0,VALID,100,VALID,0.0169808,VALID,18.7286,VALID,79,VALID,0.55814,
2005-02-03, 00:04:00,VALID,919.328,VALID,0,VALID,100,VALID,-0.0169808,VALID,18.7318,VALID,101,VALID,0.72093,
2005-02-03, 00:05:00,VALID,919.323,VALID,0,VALID,100,VALID,-0.0339617,VALID,18.7482,VALID,97,VALID,0.945313,
2005-02-03, 00:06:00,VALID,919.298,VALID,0,VALID,100,VALID,0,VALID,18.774,VALID,83,VALID,0.815476,
2005-02-03, 00:07:00,VALID,919.295,VALID,0,VALID,100,VALID,-0.0169808,VALID,18.8028,VALID,57,VALID,0.97309,
2005-02-03, 00:08:00,VALID,919.275,VALID,0,VALID,100,VALID,-0.0169808,VALID,18.8324,VALID,61,VALID,1.33311,
2005-02-03, 00:09:00,VALID,919.28,VALID,0,VALID,100,VALID,-0.0169808,VALID,18.8453,VALID,69,VALID,1.16477,
2005-02-03, 00:10:00,VALID,919.273,VALID,0,VALID,100,VALID,-0.0169808,VALID,18.8644,VALID,88,VALID,1.3085,
2005-02-03, 00:11:00,VALID,919.264,VALID,0,VALID,100,VALID,-0.0169808,VALID,18.8575,VALID,74,VALID,1.17262,
2005-02-03, 00:12:00,VALID,919.251,VALID,0,VALID,100,VALID,-0.0339617,VALID,18.8706,VALID,107,VALID,1.05898,
2005-02-03, 00:13:00,VALID,919.229,VALID,0,VALID,100,VALID,-0.0339617,VALID,18.8905,VALID,97,VALID,0.741824,
2005-02-03, 00:14:00,VALID,919.217,VALID,0,VALID,100,VALID,-0.0339617,VALID,18.9034,VALID,100,VALID,0.589489,
2005-02-03, 00:15:00,VALID,919.204,VALID,0,VALID,100,VALID,-0.0169808,VALID,18.8999,VALID,106,VALID,1.07533,
2005-02-03, 00:16:00,VALID,919.189,VALID,0,VALID,100,VALID,-0.0169808,VALID,18.9096,VALID,108,VALID,1.08931,
2005-02-03, 00:17:00,VALID,919.182,VALID,0,VALID,100,VALID,-0.0339617,VALID,18.9195,VALID,120,VALID,0.795201,
2005-02-03, 00:18:00,VALID,919.179,VALID,0,VALID,100,VALID,-0.0509425,VALID,18.9163,VALID,95,VALID,0.904474,
2005-02-03, 00:19:00,VALID,919.174,VALID,0,VALID,100,VALID,-0.0339617,VALID,18.9131,VALID,114,VALID,1.2234,
2005-02-03, 00:20:00,VALID,919.179,VALID,0,VALID,100,VALID,-0.0849042,VALID,18.9128,VALID,73,VALID,1.05692,
2005-02-03, 00:21:00,VALID,919.189,VALID,0,VALID,100,VALID,-0.0509425,VALID,18.9161,VALID,91,VALID,0.766959,
2005-02-03, 00:22:00,VALID,919.194,VALID,0,VALID,100,VALID,-0.0679233,VALID,18.9232,VALID,87,VALID,0.706076,
2005-02-03, 00:23:00,VALID,919.19,VALID,0,VALID,100,VALID,-0.0509425,VALID,18.9032,VALID,103,VALID,0.94707,
2005-02-03, 00:24:00,VALID,919.207,VALID,0,VALID,100,VALID,-0.0339617,VALID,18.8872,VALID,95,VALID,0.773438,
2005-02-03, 00:25:00,VALID,919.204,VALID,0,VALID,100,VALID,-0.0169808,VALID,18.8607,VALID,103,VALID,1.15552,
2005-02-03, 00:26:00,VALID,919.212,VALID,0,VALID,100,VALID,-0.0169808,VALID,18.8743,VALID,93,VALID,0.539971,
2005-02-03, 00:27:00,VALID,919.217,VALID,0,VALID,100,VALID,-0.0169808,VALID,18.858,VALID,113,VALID,0.688772,
2005-02-03, 00:28:00,VALID,919.215,VALID,0,VALID,100,VALID,-0.0509425,VALID,18.8547,VALID,124,VALID,0.699929,
2005-02-03, 00:29:00,VALID,919.208,VALID,0,VALID,100,VALID,-0.0169808,VALID,18.8448,VALID,118,VALID,0.843178,
2005-02-03, 00:30:00,VALID,919.203,VALID,0,VALID,100,VALID,-0.0169808,VALID,18.8418,VALID,134,VALID,0.805078,
2005-02-03, 00:31:01,VALID,919.186,VALID,0,VALID,100,VALID,-0.0169808,VALID,18.8346,VALID,113,VALID,0.631359,
2005-02-03, 00:32:00,VALID,919.184,VALID,0,VALID,100,VALID,-0.0509425,VALID,18.8354,VALID,114,VALID,0.576601,
2005-02-03, 00:33:00,VALID,919.177,VALID,0,VALID,100,VALID,-0.0509425,VALID,18.8358,VALID,127,VALID,1.12909,
2005-02-03, 00:34:00,VALID,919.166,VALID,0,VALID,100,VALID,-0.0509425,VALID,18.8095,VALID,121,VALID,1.32012,
2005-02-03, 00:35:01,VALID,919.161,VALID,0,VALID,100,VALID,-0.0679233,VALID,18.7867,VALID,107,VALID,0.716388,
2005-02-03, 00:36:00,VALID,919.159,VALID,0,VALID,100,VALID,0,VALID,18.7807,VALID,89,VALID,0.637355,
2005-02-03, 00:37:00,VALID,919.149,VALID,0,VALID,100,VALID,-0.0339617,VALID,18.7581,VALID,86,VALID,0.910714,
2005-02-03, 00:38:01,VALID,919.143,VALID,0,VALID,100,VALID,-0.0169808,VALID,18.7323,VALID,83,VALID,0.623183,
2005-02-03, 00:39:01,VALID,919.129,VALID,0,VALID,100,VALID,-0.0339617,VALID,18.7064,VALID,85,VALID,0.626524,
2005-02-03, 00:40:00,VALID,919.132,VALID,0,VALID,100,VALID,-0.0169808,VALID,18.6707,VALID,82,VALID,0.571948,
2005-02-03, 00:41:00,VALID,919.103,VALID,0,VALID,100,VALID,-0.0339617,VALID,18.6451,VALID,84,VALID,0.814732,
2005-02-03, 00:42:00,VALID,919.083,VALID,0,VALID,100,VALID,-0.0169808,VALID,18.5997,VALID,85,VALID,0.880394,
2005-02-03, 00:43:01,VALID,919.079,VALID,0,VALID,100,VALID,-0.0339617,VALID,18.5644,VALID,113,VALID,1.03107,
2005-02-03, 00:44:00,VALID,919.065,VALID,0,VALID,100,VALID,-0.0509425,VALID,18.536,VALID,117,VALID,0.731712,
2005-02-03, 00:45:00,VALID,919.046,VALID,0,VALID,100,VALID,-0.0679233,VALID,18.5164,VALID,128,VALID,0.90253,
2005-02-03, 00:46:00,VALID,919.028,VALID,0,VALID,100,VALID,-0.0169808,VALID,18.5167,VALID,134,VALID,0.8125,
2005-02-03, 00:47:00,VALID,919.012,VALID,0,VALID,100,VALID,-0.0679233,VALID,18.5095,VALID,126,VALID,0.707919,
2005-02-03, 00:48:00,VALID,919.02,VALID,0,VALID,100,VALID,-0.0339617,VALID,18.4966,VALID,128,VALID,0.847202,
2005-02-03, 00:49:00,VALID,919.003,VALID,0,VALID,100,VALID,-0.0339617,VALID,18.4869,VALID,136,VALID,0.816406,
2005-02-03, 00:50:01,VALID,919.008,VALID,0,VALID,100,VALID,-0.0169808,VALID,18.4973,VALID,127,VALID,0.49359,
2005-02-03, 00:51:00,VALID,918.996,VALID,0,VALID,100,VALID,-0.0679233,VALID,18.4708,VALID,128,VALID,0.93968,
2005-02-03, 00:52:00,VALID,918.997,VALID,0,VALID,100,VALID,-0.0679233,VALID,18.471,VALID,111,VALID,0.803013,
2005-02-03, 00:53:01,VALID,918.992,VALID,0,VALID,100,VALID,-0.118866,VALID,18.4652,VALID,106,VALID,0.705915,
2005-02-03, 00:54:01,VALID,918.986,VALID,0,VALID,100,VALID,-0.0509425,VALID,18.4685,VALID,106,VALID,0.632617,
2005-02-03, 00:55:00,VALID,918.972,VALID,0,VALID,100,VALID,-0.0679233,VALID,18.4779,VALID,111,VALID,0.663352,
2005-02-03, 00:56:00,VALID,918.98,VALID,0,VALID,100,VALID,-0.0339617,VALID,18.4613,VALID,94,VALID,0.514898,
2005-02-03, 00:57:00,VALID,918.977,VALID,0,VALID,100,VALID,-0.0679233,VALID,18.4521,VALID,84,VALID,0.682639,
2005-02-03, 00:58:00,VALID,918.969,VALID,0,VALID,100,VALID,-0.0849042,VALID,18.4357,VALID,98,VALID,0.488735,
2005-02-03, 00:59:01,VALID,918.971,VALID,0,VALID,100,VALID,-0.0509425,VALID,18.4196,VALID,91,VALID,0.669744,
2005-02-03, 01:00:00,VALID,918.963,VALID,0,VALID,100,VALID,-0.0679233,VALID,18.4134,VALID,107,VALID,0.514757,
2005-02-03, 01:01:01,VALID,918.966,VALID,0,VALID,100,VALID,-0.0339617,VALID,18.4134,VALID,108,VALID,0.51944,
2005-02-03, 01:02:00,VALID,918.968,VALID,0,VALID,100,VALID,-0.0849042,VALID,18.4039,VALID,110,VALID,0.377262,
2005-02-03, 01:03:00,VALID,918.953,VALID,0,VALID,100,VALID,-0.0849042,VALID,18.3875,VALID,120,VALID,0.44401,
2005-02-03, 01:04:01,VALID,918.952,VALID,0,VALID,100,VALID,-0.0849042,VALID,18.3845,VALID,113,VALID,0.810404,
2005-02-03, 01:05:00,VALID,918.938,VALID,0,VALID,100,VALID,-0.0339617,VALID,18.3908,VALID,122,VALID,0.842731,
2005-02-03, 01:06:00,VALID,918.926,VALID,0,VALID,100,VALID,0.0679233,VALID,18.3926,VALID,129,VALID,0.769245,
2005-02-03, 01:07:01,VALID,918.911,VALID,0,VALID,100,VALID,0.0339617,VALID,18.3961,VALID,132,VALID,0.525347,
2005-02-03, 01:08:00,VALID,918.906,VALID,0,VALID,100,VALID,0.0339617,VALID,18.3958,VALID,130,VALID,0.620916,
2005-02-03, 01:09:00,VALID,918.919,VALID,0,VALID,100,VALID,0.0679233,VALID,18.4154,VALID,141,VALID,1.07385,
2005-02-03, 01:10:00,VALID,918.91,VALID,0,VALID,100,VALID,0.101885,VALID,18.4373,VALID,147,VALID,1.02646,
2005-02-03, 01:11:00,VALID,918.906,VALID,0,VALID,100,VALID,0.0509425,VALID,18.4413,VALID,159,VALID,0.892149,
2005-02-03, 01:12:00,VALID,918.897,VALID,0,VALID,100,VALID,0.0849042,VALID,18.4413,VALID,147,VALID,0.985403,
2005-02-03, 01:13:01,VALID,918.885,VALID,0,VALID,100,VALID,0.0339617,VALID,18.4509,VALID,157,VALID,1.03144,
2005-02-03, 01:14:00,VALID,918.873,VALID,0,VALID,100,VALID,0.0679233,VALID,18.4671,VALID,123,VALID,0.662642,
2005-02-03, 01:15:00,VALID,918.861,VALID,0,VALID,100,VALID,0.0339617,VALID,18.474,VALID,138,VALID,0.985465,
2005-02-03, 01:16:01,VALID,918.854,VALID,0,VALID,100,VALID,0.0339617,VALID,18.4703,VALID,129,VALID,1.02108,
2005-02-03, 01:17:00,VALID,918.853,VALID,0,VALID,100,VALID,0.0509425,VALID,18.4609,VALID,129,VALID,0.943452,
2005-02-03, 01:18:01,VALID,918.849,VALID,0,VALID,100,VALID,0.0339617,VALID,18.438,VALID,124,VALID,0.950945,
2005-02-03, 01:19:00,VALID,918.842,VALID,0,VALID,100,VALID,0.0339617,VALID,18.4281,VALID,111,VALID,0.545422,
2005-02-03, 01:20:00,VALID,918.823,VALID,0,VALID,100,VALID,0.0339617,VALID,18.3896,VALID,130,VALID,0.554129,
2005-02-03, 01:21:00,VALID,918.82,VALID,0,VALID,100,VALID,0.0679233,VALID,18.373,VALID,120,VALID,0.897135,
2005-02-03, 01:22:01,VALID,918.813,VALID,0,VALID,100,VALID,0.0339617,VALID,18.3601,VALID,129,VALID,0.907158,
2005-02-03, 01:23:00,VALID,918.806,VALID,0,VALID,100,VALID,0.0509425,VALID,18.3866,VALID,131,VALID,1.15789,
2005-02-03, 01:24:00,VALID,918.799,VALID,0,VALID,100,VALID,0.0509425,VALID,18.3993,VALID,133,VALID,0.952567,
2005-02-03, 01:25:00,VALID,918.798,VALID,0,VALID,100,VALID,0.0679233,VALID,18.4025,VALID,143,VALID,1.09103,
2005-02-03, 01:26:00,VALID,918.779,VALID,0,VALID,100,VALID,0.0679233,VALID,18.4087,VALID,138,VALID,1.42151,
2005-02-03, 01:27:01,VALID,918.773,VALID,0,VALID,100,VALID,0.0849042,VALID,18.4247,VALID,144,VALID,1.11555,
2005-02-03, 01:28:00,VALID,918.771,VALID,0,VALID,100,VALID,0.0169808,VALID,18.4283,VALID,141,VALID,1.1617,
2005-02-03, 01:29:00,VALID,918.76,VALID,0,VALID,100,VALID,-0.0509425,VALID,18.436,VALID,137,VALID,0.959302,
2005-02-03, 01:30:00,VALID,918.769,VALID,0,VALID,100,VALID,-0.0679233,VALID,18.433,VALID,121,VALID,1.22911,
2005-02-03, 01:31:00,VALID,918.757,VALID,0,VALID,100,VALID,-0.0169808,VALID,18.4233,VALID,107,VALID,1.02326,
2005-02-03, 01:32:00,VALID,918.753,VALID,0,VALID,100,VALID,0,VALID,18.4039,VALID,100,VALID,0.550223,
2005-02-03, 01:33:00,VALID,918.744,VALID,0,VALID,100,VALID,-0.0679233,VALID,18.3716,VALID,91,VALID,0.63125,
2005-02-03, 01:34:00,VALID,918.72,VALID,0,VALID,100,VALID,-0.0169808,VALID,18.3486,VALID,77,VALID,0.528054,
2005-02-03, 01:35:01,VALID,918.717,VALID,0,VALID,100,VALID,-0.101885,VALID,18.3172,VALID,68,VALID,0.483648,
2005-02-03, 01:36:00,VALID,918.703,VALID,0,VALID,100,VALID,-0.118866,VALID,18.2921,VALID,65,VALID,0.442708,
2005-02-03, 01:37:01,VALID,918.712,VALID,0,VALID,100,VALID,-0.101885,VALID,18.2531,VALID,53,VALID,0.378162,
2005-02-03, 01:38:00,VALID,918.703,VALID,0,VALID,100,VALID,-0.101885,VALID,18.2213,VALID,55,VALID,0.636418,
2005-02-03, 01:39:00,VALID,918.684,VALID,0,VALID,100,VALID,-0.118866,VALID,18.2014,VALID,77,VALID,0.735795,
2005-02-03, 01:40:00,VALID,918.687,VALID,0,VALID,100,VALID,-0.135847,VALID,18.2183,VALID,69,VALID,0.960556,
2005-02-03, 01:41:00,VALID,918.67,VALID,0,VALID,100,VALID,-0.169808,VALID,18.1952,VALID,62,VALID,0.997456,
2005-02-03, 01:42:01,VALID,918.651,VALID,0,VALID,100,VALID,-0.101885,VALID,18.1959,VALID,72,VALID,0.986852,
2005-02-03, 01:43:00,VALID,918.631,VALID,0,VALID,100,VALID,-0.135847,VALID,18.1924,VALID,70,VALID,1.02255,
2005-02-03, 01:44:00,VALID,918.601,VALID,0,VALID,100,VALID,-0.118866,VALID,18.2155,VALID,67,VALID,0.93968,
2005-02-03, 01:45:00,VALID,918.579,VALID,0,VALID,100,VALID,-0.101885,VALID,18.2017,VALID,68,VALID,1.08141,
2005-02-03, 01:46:01,VALID,918.551,VALID,0,VALID,100,VALID,-0.101885,VALID,18.1858,VALID,78,VALID,1.04197,
2005-02-03, 01:47:00,VALID,918.543,VALID,0,VALID,100,VALID,-0.118866,VALID,18.1726,VALID,87,VALID,0.954055,
2005-02-03, 01:48:01,VALID,918.544,VALID,0,VALID,100,VALID,-0.101885,VALID,18.1632,VALID,100,VALID,1.18496,
2005-02-03, 01:49:00,VALID,918.539,VALID,0,VALID,100,VALID,-0.0849042,VALID,18.1821,VALID,99,VALID,1.10683,
2005-02-03, 01:50:01,VALID,918.539,VALID,0,VALID,100,VALID,-0.0849042,VALID,18.1756,VALID,76,VALID,0.999455,
2005-02-03, 01:51:00,VALID,918.543,VALID,0,VALID,100,VALID,0,VALID,18.1553,VALID,87,VALID,0.895312,
2005-02-03, 01:52:00,VALID,918.542,VALID,0,VALID,100,VALID,0,VALID,18.136,VALID,77,VALID,1.0625,
2005-02-03, 01:53:01,VALID,918.54,VALID,0,VALID,100,VALID,-0.0169808,VALID,18.1037,VALID,67,VALID,1.11068,
2005-02-03, 01:54:00,VALID,918.537,VALID,0,VALID,100,VALID,-0.0169808,VALID,18.0776,VALID,76,VALID,0.960938,
2005-02-03, 01:55:00,VALID,918.54,VALID,0,VALID,100,VALID,-0.0339617,VALID,18.0684,VALID,87,VALID,0.95277,
2005-02-03, 01:56:01,VALID,918.518,VALID,0,VALID,100,VALID,-0.0509425,VALID,18.0749,VALID,89,VALID,1.08575,
2005-02-03, 01:57:00,VALID,918.504,VALID,0,VALID,100,VALID,-0.0169808,VALID,18.0779,VALID,87,VALID,0.956944,
2005-02-03, 01:58:01,VALID,918.488,VALID,0,VALID,100,VALID,-0.0339617,VALID,18.0684,VALID,87,VALID,0.864583,
2005-02-03, 01:59:00,VALID,918.474,VALID,0,VALID,100,VALID,-0.0169808,VALID,18.049,VALID,79,VALID,0.750558,
2005-02-03, 02:00:00,VALID,918.442,VALID,0,VALID,100,VALID,0,VALID,18.026,VALID,80,VALID,0.893169,
2005-02-03, 02:01:01,VALID,918.415,VALID,0,VALID,100,VALID,0,VALID,18.0264,VALID,85,VALID,1.08359,
2005-02-03, 02:02:00,VALID,918.398,VALID,0,VALID,100,VALID,-0.0169808,VALID,18.023,VALID,91,VALID,1.07712,
2005-02-03, 02:03:00,VALID,918.375,VALID,0,VALID,100,VALID,-0.0169808,VALID,18.0428,VALID,89,VALID,1.04815,
2005-02-03, 02:04:00,VALID,918.348,VALID,0,VALID,100,VALID,0,VALID,18.0553,VALID,100,VALID,1.38336,
2005-02-03, 02:05:01,VALID,918.337,VALID,0,VALID,100,VALID,0,VALID,18.0875,VALID,94,VALID,1.20135,
2005-02-03, 02:06:01,VALID,918.307,VALID,0,VALID,100,VALID,-0.0169808,VALID,18.1136,VALID,104,VALID,1.08841,
2005-02-03, 02:07:01,VALID,918.287,VALID,0,VALID,100,VALID,-0.0169808,VALID,18.1134,VALID,112,VALID,1.08539,
2005-02-03, 02:08:00,VALID,918.274,VALID,0,VALID,100,VALID,-0.0339617,VALID,18.1201,VALID,111,VALID,1.1502,
2005-02-03, 02:09:00,VALID,918.271,VALID,0,VALID,100,VALID,-0.0169808,VALID,18.1039,VALID,122,VALID,0.839931,
2005-02-03, 02:10:00,VALID,918.257,VALID,0,VALID,100,VALID,-0.0339617,VALID,18.0878,VALID,123,VALID,0.784226,
2005-02-03, 02:11:00,VALID,918.249,VALID,0,VALID,100,VALID,-0.0169808,VALID,18.091,VALID,140,VALID,1.21437,
2005-02-03, 02:12:01,VALID,918.249,VALID,0,VALID,100,VALID,-0.0339617,VALID,18.1007,VALID,137,VALID,1.46484,
2005-02-03, 02:13:01,VALID,918.234,VALID,0,VALID,100,VALID,-0.0169808,VALID,18.1007,VALID,129,VALID,1.42714,
2005-02-03, 02:14:01,VALID,918.244,VALID,0,VALID,100,VALID,-0.0169808,VALID,18.1069,VALID,130,VALID,1.49375,
2005-02-03, 02:15:01,VALID,918.241,VALID,0,VALID,100,VALID,0,VALID,18.1071,VALID,134,VALID,1.70201,
2005-02-03, 02:16:00,VALID,918.242,VALID,0,VALID,100,VALID,0,VALID,18.1334,VALID,118,VALID,1.20955,
2005-02-03, 02:17:01,VALID,918.234,VALID,0,VALID,100,VALID,0,VALID,18.124,VALID,115,VALID,1.12119,
2005-02-03, 02:18:01,VALID,918.224,VALID,0,VALID,100,VALID,-0.0339617,VALID,18.0938,VALID,107,VALID,1.24591,
2005-02-03, 02:19:01,VALID,918.222,VALID,0,VALID,100,VALID,-0.0509425,VALID,18.091,VALID,110,VALID,0.740885,
2005-02-03, 02:20:01,VALID,918.216,VALID,0,VALID,100,VALID,0.0169808,VALID,18.0749,VALID,97,VALID,0.584484,
2005-02-03, 02:21:01,VALID,918.224,VALID,0,VALID,100,VALID,0.0679233,VALID,18.061,VALID,112,VALID,0.940705,
2005-02-03, 02:22:01,VALID,918.217,VALID,0,VALID,100,VALID,0.101885,VALID,18.0546,VALID,111,VALID,0.617914,
2005-02-03, 02:23:01,VALID,918.229,VALID,0,VALID,100,VALID,0.101885,VALID,18.0447,VALID,103,VALID,0.882449,
2005-02-03, 02:24:01,VALID,918.22,VALID,0,VALID,100,VALID,0.0849042,VALID,18.0544,VALID,109,VALID,0.733073,
2005-02-03, 02:25:01,VALID,918.216,VALID,0,VALID,100,VALID,0.0849042,VALID,18.0477,VALID,99,VALID,0.628299,
2005-02-03, 02:26:01,VALID,918.206,VALID,0,VALID,100,VALID,0.101885,VALID,18.0479,VALID,92,VALID,0.406808,
2005-02-03, 02:27:00,VALID,918.197,VALID,0,VALID,100,VALID,0.101885,VALID,18.0576,VALID,138,VALID,0.706321,
2005-02-03, 02:28:01,VALID,918.194,VALID,0,VALID,100,VALID,0.0849042,VALID,18.0479,VALID,131,VALID,0.152435,
2005-02-03, 02:29:01,VALID,918.185,VALID,0,VALID,100,VALID,0.0679233,VALID,18.0315,VALID,131,VALID,0.0234375,
2005-02-03, 02:30:01,VALID,918.182,VALID,0,VALID,100,VALID,0.0849042,VALID,18.0191,VALID,131,VALID,0.233631,
2005-02-03, 02:31:01,VALID,918.157,VALID,0,VALID,100,VALID,0.101885,VALID,17.9898,VALID,109,VALID,0.346807,
2005-02-03, 02:32:01,VALID,918.135,VALID,0,VALID,100,VALID,0.101885,VALID,17.9704,VALID,78,VALID,0.775174,
2005-02-03, 02:33:01,VALID,918.108,VALID,0,VALID,100,VALID,0.101885,VALID,17.9637,VALID,58,VALID,0.951349,
2005-02-03, 02:34:01,VALID,918.082,VALID,0,VALID,100,VALID,0.101885,VALID,17.9349,VALID,54,VALID,0.922852,
2005-02-03, 02:35:01,VALID,918.069,VALID,0,VALID,100,VALID,0.0339617,VALID,17.9195,VALID,56,VALID,1.12824,
2005-02-03, 02:36:01,VALID,918.052,VALID,0,VALID,100,VALID,-0.0339617,VALID,17.9167,VALID,63,VALID,0.974085,
2005-02-03, 02:37:01,VALID,918.038,VALID,0,VALID,100,VALID,-0.101885,VALID,17.9496,VALID,86,VALID,1.03658,
2005-02-03, 02:38:01,VALID,918.017,VALID,0,VALID,100,VALID,-0.0509425,VALID,17.9563,VALID,90,VALID,0.724382,
2005-02-03, 02:39:01,VALID,918.009,VALID,0,VALID,100,VALID,-0.0849042,VALID,17.9236,VALID,90,VALID,0.826563,
2005-02-03, 02:40:01,VALID,917.995,VALID,0,VALID,100,VALID,-0.0679233,VALID,17.927,VALID,103,VALID,1.09738,
2005-02-03, 02:41:01,VALID,917.988,VALID,0,VALID,100,VALID,-0.0509425,VALID,17.9374,VALID,110,VALID,0.930197,
2005-02-03, 02:42:01,VALID,917.95,VALID,0,VALID,100,VALID,-0.0509425,VALID,17.937,VALID,120,VALID,1.12309,
2005-02-03, 02:43:01,VALID,917.937,VALID,0,VALID,100,VALID,-0.0679233,VALID,17.9662,VALID,125,VALID,1.68247,
2005-02-03, 02:44:01,VALID,917.93,VALID,0,VALID,100,VALID,-0.0509425,VALID,17.9921,VALID,122,VALID,1.42653,
2005-02-03, 02:45:01,VALID,917.925,VALID,0,VALID,100,VALID,-0.0849042,VALID,17.9953,VALID,107,VALID,1.0452,
2005-02-03, 02:46:01,VALID,917.919,VALID,0,VALID,100,VALID,-0.101885,VALID,18.0147,VALID,122,VALID,1.61283,
2005-02-03, 02:47:01,VALID,917.911,VALID,0,VALID,100,VALID,-0.0679233,VALID,18.0075,VALID,104,VALID,1.3428,
2005-02-03, 02:48:01,VALID,917.912,VALID,0,VALID,100,VALID,-0.0849042,VALID,17.9909,VALID,107,VALID,1.0166,
2005-02-03, 02:49:01,VALID,917.908,VALID,0,VALID,100,VALID,-0.0849042,VALID,17.9948,VALID,103,VALID,0.945494,
2005-02-03, 02:50:01,VALID,917.903,VALID,0,VALID,100,VALID,-0.0849042,VALID,17.9794,VALID,86,VALID,0.864879,
2005-02-03, 02:51:01,VALID,917.889,VALID,0,VALID,100,VALID,-0.0849042,VALID,17.9598,VALID,93,VALID,1.01687,
2005-02-03, 02:52:01,VALID,917.885,VALID,0,VALID,100,VALID,-0.0849042,VALID,17.934,VALID,96,VALID,0.897321,
2005-02-03, 02:53:01,VALID,917.886,VALID,0,VALID,100,VALID,-0.101885,VALID,17.9014,VALID,100,VALID,0.422877,
2005-02-03, 02:54:01,VALID,917.87,VALID,0,VALID,100,VALID,-0.0679233,VALID,17.8883,VALID,92,VALID,0.979759,
2005-02-03, 02:55:01,VALID,917.858,VALID,0,VALID,100,VALID,-0.0679233,VALID,17.8918,VALID,104,VALID,0.84933,
2005-02-03, 02:56:01,VALID,917.855,VALID,0,VALID,100,VALID,-0.0509425,VALID,17.9012,VALID,108,VALID,0.936719,
2005-02-03, 02:57:01,VALID,917.841,VALID,0,VALID,100,VALID,-0.0509425,VALID,17.9148,VALID,118,VALID,1.36298,
2005-02-03, 02:58:01,VALID,917.819,VALID,0,VALID,100,VALID,-0.0679233,VALID,17.9169,VALID,128,VALID,1.32049,
2005-02-03, 02:59:00,VALID,917.814,VALID,0,VALID,100,VALID,-0.101885,VALID,17.9404,VALID,108,VALID,0.84096,
2005-02-03, 03:00:00,VALID,917.817,VALID,0,VALID,100,VALID,-0.0849042,VALID,17.9374,VALID,102,VALID,0.904154,
2005-02-03, 03:01:00,VALID,917.82,VALID,0,VALID,100,VALID,-0.101885,VALID,17.9141,VALID,112,VALID,0.782278,
2005-02-03, 03:02:00,VALID,917.816,VALID,0,VALID,100,VALID,-0.0849042,VALID,17.9049,VALID,100,VALID,0.859184,
2005-02-03, 03:03:00,VALID,917.805,VALID,0,VALID,100,VALID,-0.0849042,VALID,17.8754,VALID,84,VALID,0.904344,
2005-02-03, 03:04:00,VALID,917.803,VALID,0,VALID,100,VALID,-0.101885,VALID,17.8498,VALID,78,VALID,0.952172,
2005-02-03, 03:05:00,VALID,917.799,VALID,0,VALID,100,VALID,-0.0509425,VALID,17.8268,VALID,76,VALID,1.11031,
2005-02-03, 03:06:00,VALID,917.804,VALID,0,VALID,100,VALID,0.0339617,VALID,17.8035,VALID,73,VALID,1.0767,
2005-02-03, 03:07:00,VALID,917.795,VALID,0,VALID,100,VALID,0.0679233,VALID,17.7774,VALID,77,VALID,1.01944,
2005-02-03, 03:08:00,VALID,917.795,VALID,0,VALID,100,VALID,0.0169808,VALID,17.7484,VALID,77,VALID,0.914583,
2005-02-03, 03:09:00,VALID,917.789,VALID,0,VALID,100,VALID,0.0509425,VALID,17.7223,VALID,88,VALID,1.15334,
2005-02-03, 03:10:00,VALID,917.787,VALID,0,VALID,100,VALID,0.0509425,VALID,17.7355,VALID,103,VALID,1.09089,
2005-02-03, 03:11:00,VALID,917.779,VALID,0,VALID,100,VALID,0.0509425,VALID,17.7583,VALID,103,VALID,1.18426,
2005-02-03, 03:12:00,VALID,917.778,VALID,0,VALID,100,VALID,0.0509425,VALID,17.7648,VALID,105,VALID,0.817294,
2005-02-03, 03:13:00,VALID,917.769,VALID,0,VALID,100,VALID,0.0849042,VALID,17.7712,VALID,110,VALID,1.10556,
2005-02-03, 03:14:00,VALID,917.767,VALID,0,VALID,100,VALID,0.0679233,VALID,17.774,VALID,108,VALID,0.979469,
2005-02-03, 03:15:00,VALID,917.743,VALID,0,VALID,100,VALID,0.0509425,VALID,17.7777,VALID,134,VALID,1.15774,
2005-02-03, 03:16:00,VALID,917.742,VALID,0,VALID,100,VALID,0.0679233,VALID,17.7675,VALID,100,VALID,1.0266,
2005-02-03, 03:17:00,VALID,917.722,VALID,0,VALID,100,VALID,0.0679233,VALID,17.7673,VALID,112,VALID,0.937314,
2005-02-03, 03:18:00,VALID,917.683,VALID,0,VALID,100,VALID,0.0169808,VALID,17.7585,VALID,93,VALID,0.691315,
2005-02-03, 03:19:00,VALID,917.665,VALID,0,VALID,100,VALID,0.0679233,VALID,17.729,VALID,96,VALID,0.931974,
2005-02-03, 03:20:00,VALID,917.654,VALID,0,VALID,100,VALID,0.0679233,VALID,17.7124,VALID,85,VALID,0.700149,
2005-02-03, 03:21:00,VALID,917.626,VALID,0,VALID,100,VALID,0.0509425,VALID,17.6871,VALID,85,VALID,0.512005,
2005-02-03, 03:22:00,VALID,917.623,VALID,0,VALID,100,VALID,0,VALID,17.6744,VALID,80,VALID,0.828311,
2005-02-03, 03:23:00,VALID,917.617,VALID,0,VALID,100,VALID,0.0339617,VALID,17.6744,VALID,70,VALID,0.907012,
2005-02-03, 03:24:00,VALID,917.603,VALID,0,VALID,100,VALID,0.0679233,VALID,17.652,VALID,54,VALID,1.07369,
2005-02-03, 03:25:00,VALID,917.607,VALID,0,VALID,100,VALID,0.0509425,VALID,17.613,VALID,56,VALID,1.30812,
2005-02-03, 03:26:00,VALID,917.598,VALID,0,VALID,100,VALID,0.0679233,VALID,17.6582,VALID,69,VALID,1.15458,
2005-02-03, 03:27:00,VALID,917.613,VALID,0,VALID,100,VALID,0,VALID,17.7133,VALID,83,VALID,1.05087,
2005-02-03, 03:28:00,VALID,917.61,VALID,0,VALID,100,VALID,0.0339617,VALID,17.7583,VALID,87,VALID,1.14375,
2005-02-03, 03:29:00,VALID,917.605,VALID,0,VALID,100,VALID,0.0169808,VALID,17.7742,VALID,87,VALID,0.897837,
2005-02-03, 03:30:00,VALID,917.596,VALID,0,VALID,100,VALID,0.0509425,VALID,17.7873,VALID,85,VALID,0.999455,
2005-02-03, 03:31:00,VALID,917.603,VALID,0,VALID,100,VALID,0.0679233,VALID,17.7973,VALID,99,VALID,1.13167,
2005-02-03, 03:32:00,VALID,917.599,VALID,0,VALID,100,VALID,0.0339617,VALID,17.8132,VALID,102,VALID,1.42115,
2005-02-03, 03:33:00,VALID,917.596,VALID,0,VALID,100,VALID,0.0339617,VALID,17.8226,VALID,106,VALID,1.25017,
2005-02-03, 03:34:00,VALID,917.587,VALID,0,VALID,100,VALID,0.0169808,VALID,17.8132,VALID,101,VALID,1.49182,
2005-02-03, 03:35:00,VALID,917.589,VALID,0,VALID,100,VALID,0.0339617,VALID,17.8063,VALID,108,VALID,1.23926,
2005-02-03, 03:36:00,VALID,917.594,VALID,0,VALID,100,VALID,-0.0169808,VALID,17.8005,VALID,119,VALID,1.61991,
2005-02-03, 03:37:00,VALID,917.611,VALID,0,VALID,100,VALID,0,VALID,17.8136,VALID,123,VALID,1.31399,
2005-02-03, 03:38:00,VALID,917.599,VALID,0,VALID,100,VALID,-0.0169808,VALID,17.8205,VALID,119,VALID,1.79633,